New Cumberland, PA

9:34 PM EST on February 21, 2017 (GMT -0500)
Capital City

Weather History for KCXY - October, 2011

Change the Weather History Date:

Tuesday, October 18, 2011

  Actual Average Record
Temperature  
Mean Temperature 58 °F -  
Max Temperature 72 °F 60 °F 86 °F (2016)
Min Temperature 46 °F 41 °F 30 °F (1982)
Degree Days  
Heating Degree Days 6    
Growing Degree Days 8 (Base 50)    
Moisture  
Dew Point 43 °F    
Average Humidity 62    
Maximum Humidity 86    
Minimum Humidity 27    
Precipitation  
Precipitation 0.00 in - - ()
Sea Level Pressure  
Sea Level Pressure 29.84 in    
Wind  
Wind Speed 1 mph (SE)    
Max Wind Speed 7 mph    
Max Gust Speed -    
Visibility 10 miles    
Events      
Averages and records for this station are not official NWS values.
T = Trace of Precipitation, MM = Missing Value Source: NWS Daily Summary

Daily Weather History Graph

Daily Weather History Graph

Search for Another Location

Airport or City:

Trip Planner

Search our weather history database for the weather conditions in past years. The results will help you decide how hot, cold, wet, or windy it might be!

Date:

Astronomy

Oct. 18, 2011 Rise Set
Actual Time 7:20 AM EDT 6:23 PM EDT
Civil Twilight 6:53 AM EDT 6:51 PM EDT
Nautical Twilight 6:21 AM EDT 7:22 PM EDT
Astronomical Twilight 5:50 AM EDT 7:53 PM EDT
Moon 11:02 PM EDT (10/18) 1:10 PM EDT (10/18)
Length of Visible Light 11h 57m
Length of Day
11h 02m
Waning Gibbous, 65% of the Moon is Illuminated
Oct 18
Waning Gibbous
Oct 19
Last Quarter
Oct 26
New
Nov 2
First Quarter
Nov 10
Full

Hourly Weather History & Observations

Time (EDT) Temp. Windchill Dew Point Humidity Pressure Visibility Wind Dir Wind Speed Gust Speed Precip Events Conditions
12:56 AM 51.1 °F - 37.9 °F 61% 29.83 in 10.0 mi Calm Calm - N/A   Scattered Clouds
1:56 AM 50.0 °F - 42.1 °F 74% 29.83 in 10.0 mi Calm Calm - N/A   Clear
2:56 AM 46.0 °F - 39.9 °F 79% 29.83 in 10.0 mi Calm Calm - N/A   Clear
3:56 AM 46.0 °F 44.8 °F 39.9 °F 79% 29.83 in 10.0 mi SW 3.5 mph - N/A   Clear
4:56 AM 48.0 °F - 42.1 °F 80% 29.84 in 10.0 mi Calm Calm - N/A   Overcast
5:56 AM 50.0 °F - 44.1 °F 80% 29.85 in 10.0 mi Calm Calm - 0.00 in   Overcast
6:56 AM 50.0 °F - 46.0 °F 86% 29.86 in 10.0 mi Calm Calm - 0.00 in   Overcast
7:56 AM 50.0 °F - 45.0 °F 83% 29.87 in 10.0 mi Calm Calm - 0.00 in   Partly Cloudy
8:56 AM 54.0 °F - 46.9 °F 77% 29.89 in 10.0 mi Calm Calm - N/A   Clear
9:56 AM 57.9 °F - 45.0 °F 62% 29.89 in 10.0 mi Calm Calm - N/A   Clear
10:56 AM 63.0 °F - 41.0 °F 45% 29.88 in 10.0 mi Calm Calm - N/A   Clear
12:56 PM 66.9 °F - 39.9 °F 37% 29.85 in 10.0 mi Variable 4.6 mph - N/A   Clear
2:56 PM 71.1 °F - 35.1 °F 27% 29.81 in 10.0 mi SW 3.5 mph - N/A   Clear
4:56 PM 70.0 °F - 39.0 °F 32% 29.81 in 10.0 mi South 4.6 mph - N/A   Clear
5:56 PM 66.9 °F - 43.0 °F 42% 29.80 in 10.0 mi SE 3.5 mph - N/A   Clear
6:56 PM 64.9 °F - 43.0 °F 45% 29.81 in 10.0 mi SE 3.5 mph - N/A   Clear
7:56 PM 59.0 °F - 46.9 °F 64% 29.83 in 10.0 mi Calm Calm - N/A   Clear
8:56 PM 60.1 °F - 46.0 °F 60% 29.83 in 10.0 mi East 4.6 mph - N/A   Clear
9:56 PM 57.0 °F - 48.0 °F 72% 29.83 in 10.0 mi Calm Calm - N/A   Clear
10:56 PM 57.9 °F - 45.0 °F 62% 29.83 in 10.0 mi East 6.9 mph - N/A   Clear
11:56 PM 59.0 °F - 45.0 °F 60% 29.82 in 10.0 mi East 5.8 mph - N/A   Scattered Clouds